DW6561 Weather Reports


time (UTC)temp
C
wind
direction
speed
KPH
gust
KPH
rain 1hr
cm
rain 24hr
cm
rain mn
cm
humidity
%
barometer
mb
20260505021510 28 329 0.0 3.2 0.00 0.00 0.00 22 1005.5
20260505020019 28 321 0.0 3.2 0.00 0.00 0.00 22 1005.6
20260505013011 29 304 0.0 3.2 0.00 0.00 0.00 24 1005.9
20260505011511 30 46 0.0 3.2 0.00 0.00 0.00 22 1006.0
20260505004530 30 317 0.0 3.2 0.00 0.00 0.00 22 1006.2
20260505003024 30 308 0.0 4.8 0.00 0.00 0.00 21 1006.4
20260505001508 31 332 0.0 3.2 0.00 0.00 0.00 22 1006.5
20260505000027 31 81 0.0 3.2 0.00 0.00 0.00 22 1006.5
20260504234518 31 81 0.0 3.2 0.00 0.00 0.00 20 1006.5
20260504233012 31 296 1.6 4.8 0.00 0.00 0.00 21 1006.5
20260504231501 31 83 1.6 4.8 0.00 0.00 0.00 21 1006.6
20260504230006 31 5 0.0 4.8 0.00 0.00 0.00 21 1006.7
20260504224504 31 246 0.0 3.2 0.00 0.00 0.00 22 1006.8
20260504223003 31 69 0.0 4.8 0.00 0.00 0.00 22 1007.1
20260504221505 31 109 0.0 4.8 0.00 0.00 0.00 23 1007.2
20260504220003 31 315 1.6 4.8 0.00 0.00 0.00 22 1007.4
20260504214503 31 333 0.0 3.2 0.00 0.00 0.00 24 1007.6
20260504213009 30 309 0.0 3.2 0.00 0.00 0.00 24 1007.7
20260504211514 30 297 0.0 6.4 0.00 0.00 0.00 25 1007.9
20260504210008 30 333 1.6 6.4 0.00 0.00 0.00 24 1008.0
20260504204504 30 294 1.6 4.8 0.00 0.00 0.00 23 1008.2
20260504203008 30 325 0.0 4.8 0.00 0.00 0.00 28 1008.4
20260504201505 29 299 0.0 4.8 0.00 0.00 0.00 25 1008.5
20260504200007 29 319 0.0 3.2 0.00 0.00 0.00 27 1008.7
20260504194519 28 298 0.0 4.8 0.00 0.00 0.00 29 1008.7
20260504191504 28 290 0.0 3.2 0.00 0.00 0.00 29 1008.9
20260504190010 27 303 0.0 4.8 0.00 0.00 0.00 29 1009.0
20260504184511 27 352 0.0 4.8 0.00 0.00 0.00 30 1009.0
20260504183020 26 107 0.0 6.4 0.00 0.00 0.00 33 1009.1
20260504181515 26 340 0.0 6.4 0.00 0.00 0.00 32 1009.1
20260504180007 25 315 0.0 4.8 0.00 0.00 0.00 34 1009.1
20260504174516 25 311 0.0 4.8 0.00 0.00 0.00 33 1009.3
20260504173022 25 331 0.0 4.8 0.00 0.00 0.00 35 1009.3
20260504171503 24 298 0.0 3.2 0.00 0.00 0.00 37 1009.3
20260504081526 20 247 0.0 6.4 0.00 0.00 0.00 35 1008.3
20260504050012 22 172 1.6 8.0 0.00 0.00 0.00 30 1008.6
20260504044519 22 159 1.6 6.4 0.00 0.00 0.00 30 1008.5
20260504043005 22 173 3.2 11.3 0.00 0.00 0.00 30 1008.7
20260504041512 22 146 1.6 4.8 0.00 0.00 0.00 30 1008.6
20260504040016 23 134 1.6 8.0 0.00 0.00 0.00 30 1008.6
20260504034531 23 154 1.6 8.0 0.00 0.00 0.00 31 1008.5
20260504033011 24 121 1.6 4.8 0.00 0.00 0.00 30 1008.5
20260504031515 25 149 0.0 3.2 0.00 0.00 0.00 29 1008.5
20260504030006 25 61 0.0 1.6 0.00 0.00 0.00 26 1008.5
20260504024521 26 61 0.0 1.6 0.00 0.00 0.00 27 1008.5
20260504023022 27 61 0.0 0.0 0.00 0.00 0.00 26 1008.6